S51BR Weather Reports


time (UTC)temp
C
wind
direction
speed
KPH
gust
KPH
rain 1hr
cm
rain 24hr
cm
rain mn
cm
humidity
%
barometer
mb
20260507174518 15 191 1.6 9.7 0.00 0.00 0.00 63 1013.2
20260507174009 15 30 3.2 9.7 0.00 0.00 0.00 63 1013.1
20260507173506 15 358 1.6 6.4 0.00 0.00 0.00 63 1013.0
20260507173020 16 200 3.2 9.7 0.00 0.00 0.00 62 1013.0
20260507172507 16 238 3.2 11.3 0.00 0.00 0.00 61 1013.1
20260507172009 16 25 4.8 11.3 0.00 0.00 0.00 60 1013.1
20260507171526 16 343 3.2 9.7 0.00 0.00 0.00 59 1013.0
20260507171010 17 31 4.8 9.7 0.00 0.00 0.00 59 1013.1
20260507170510 17 354 4.8 9.7 0.00 0.00 0.00 59 1013.1
20260507170028 17 1 1.6 11.3 0.00 0.00 0.00 59 1013.0
20260507165503 17 24 4.8 11.3 0.00 0.00 0.00 57 1013.0
20260507165014 17 4 6.4 11.3 0.00 0.00 0.00 60 1013.0
20260507164516 17 220 3.2 8.0 0.00 0.00 0.00 61 1012.9
20260507164009 16 330 0.0 3.2 0.00 0.00 0.00 65 1012.9
20260507163507 16 117 0.0 1.6 0.00 0.00 0.00 64 1012.9
20260507163023 16 182 1.6 3.2 0.00 0.00 0.00 64 1012.9
20260507162506 16 155 1.6 3.2 0.00 0.00 0.00 64 1012.8
20260507162011 16 155 0.0 3.2 0.00 0.00 0.00 65 1012.8
20260507161523 16 161 0.0 8.0 0.00 0.00 0.00 65 1012.8
20260507161009 17 212 1.6 9.7 0.00 0.00 0.00 65 1012.8
20260507160509 17 186 1.6 9.7 0.00 0.00 0.00 64 1012.8
20260507160025 17 333 3.2 6.4 0.00 0.00 0.00 63 1012.8
20260507155512 18 191 3.2 6.4 0.00 0.00 0.00 61 1012.8
20260507155011 18 312 1.6 8.0 0.00 0.00 0.00 61 1012.7
20260507154510 19 212 3.2 8.0 0.00 0.00 0.00 61 1012.7
20260507154008 19 309 1.6 6.4 0.00 0.00 0.00 60 1012.5
20260507153508 18 314 1.6 6.4 0.00 0.00 0.00 62 1012.5
20260507153017 17 308 1.6 4.8 0.00 0.00 0.00 64 1012.5
20260507152507 17 177 1.6 3.2 0.00 0.00 0.00 66 1012.6
20260507152008 17 230 0.0 4.8 0.00 0.00 0.00 67 1012.5
20260507151522 17 150 1.6 4.8 0.00 0.00 0.00 65 1012.5
20260507151006 17 37 1.6 4.8 0.00 0.00 0.00 64 1012.6
20260507150513 18 325 1.6 4.8 0.00 0.00 0.00 64 1012.6
20260507150024 18 313 1.6 4.8 0.00 0.00 0.00 64 1012.5
20260507145510 18 172 1.6 4.8 0.00 0.00 0.00 60 1012.5
20260507145010 19 157 1.6 8.0 0.00 0.00 0.00 61 1012.5
20260507144531 19 10 1.6 8.0 0.00 0.00 0.00 58 1012.5
20260507144012 20 328 3.2 6.4 0.00 0.00 0.00 60 1012.5
20260507143510 19 359 0.0 8.0 0.00 0.00 0.00 65 1012.5
20260507143016 19 25 3.2 8.0 0.00 0.00 0.00 59 1012.6
20260507142508 19 244 3.2 8.0 0.00 0.00 0.00 61 1012.6
20260507142009 19 22 3.2 8.0 0.00 0.00 0.00 61 1012.5
20260507141517 19 307 1.6 8.0 0.00 0.00 0.00 63 1012.6
20260507141007 18 311 3.2 8.0 0.00 0.00 0.00 63 1012.5
20260507140508 18 105 3.2 8.0 0.00 0.00 0.00 66 1012.5
20260507140026 18 188 1.6 6.4 0.00 0.00 0.00 66 1012.7
20260507135506 18 314 1.6 6.4 0.00 0.00 0.00 68 1012.7
20260507135009 17 20 1.6 6.4 0.00 0.00 0.00 68 1012.6
20260507134528 18 201 3.2 8.0 0.00 0.00 0.00 66 1012.8
20260507134009 18 320 3.2 8.0 0.00 0.00 0.00 64 1012.8
20260507133515 18 297 3.2 8.0 0.00 0.00 0.00 65 1012.8
20260507133026 19 203 3.2 8.0 0.00 0.00 0.00 63 1012.9
20260507132510 19 5 3.2 8.0 0.00 0.00 0.00 64 1012.9
20260507132007 19 200 3.2 11.3 0.00 0.00 0.00 65 1013.0
20260507131518 19 179 4.8 12.9 0.00 0.00 0.00 64 1013.1
20260507131009 18 203 3.2 12.9 0.00 0.00 0.00 64 1013.1
20260507130509 18 333 3.2 6.4 0.00 0.00 0.00 69 1013.1
20260507130021 18 304 1.6 6.4 0.00 0.00 0.00 70 1013.2
20260507125509 17 194 3.2 6.4 0.00 0.00 0.00 70 1013.3
20260507125006 17 167 3.2 6.4 0.00 0.00 0.00 70 1013.4
20260507124526 17 154 3.2 9.7 0.00 0.00 0.00 71 1013.4
20260507124014 17 235 3.2 9.7 0.00 0.00 0.00 71 1013.4
20260507123506 17 184 3.2 8.0 0.00 0.00 0.00 71 1013.4
20260507123009 16 156 1.6 9.7 0.00 0.00 0.00 71 1013.4
20260507122507 16 304 4.8 9.7 0.00 0.00 0.00 69 1013.4
20260507122007 16 219 3.2 6.4 0.00 0.00 0.00 69 1013.3
20260507121513 16 209 3.2 6.4 0.00 0.00 0.00 71 1013.4
20260507121008 16 181 4.8 6.4 0.00 0.00 0.00 70 1013.4
20260507120507 16 323 1.6 8.0 0.00 0.00 0.00 70 1013.5
20260507120018 16 165 1.6 8.0 0.00 0.00 0.00 74 1013.5
20260507115513 16 25 4.8 8.0 0.00 0.00 0.00 73 1013.6
20260507115009 16 200 1.6 6.4 0.00 0.00 0.00 74 1013.6
20260507114523 15 170 1.6 6.4 0.00 0.00 0.00 74 1013.5
20260507114006 16 196 3.2 6.4 0.00 0.00 0.00 72 1013.7
20260507113510 16 163 1.6 4.8 0.00 0.00 0.00 73 1013.7
20260507113024 16 229 1.6 8.0 0.00 0.00 0.00 77 1013.7
20260507112507 16 207 1.6 8.0 0.00 0.00 0.00 76 1013.7
20260507112003 16 317 3.2 8.0 0.00 0.00 0.00 74 1013.7
20260507111510 16 165 1.6 8.0 0.00 0.00 0.00 75 1013.6
20260507111006 16 240 1.6 8.0 0.00 0.00 0.00 76 1013.7
20260507110507 16 186 3.2 8.0 0.00 0.00 0.00 77 1013.8
20260507110016 16 110 3.2 8.0 0.00 0.00 0.00 75 1013.8
20260507105507 16 124 3.2 8.0 0.00 0.00 0.00 72 1013.8
20260507105006 17 199 4.8 8.0 0.00 0.00 0.00 69 1013.7
20260507104526 18 199 3.2 8.0 0.00 0.00 0.00 67 1013.6
20260507104010 18 171 3.2 8.0 0.00 0.00 0.00 67 1013.6
20260507103506 19 141 3.2 6.4 0.00 0.00 0.00 66 1013.6
20260507103026 18 167 3.2 4.8 0.00 0.00 0.00 66 1013.6
20260507102509 18 165 1.6 8.0 0.00 0.00 0.00 64 1013.7
20260507102012 18 302 3.2 8.0 0.00 0.00 0.00 67 1013.7
20260507101537 18 219 1.6 6.4 0.00 0.00 0.00 69 1013.7
20260507101011 18 205 3.2 8.0 0.00 0.00 0.00 70 1013.7
20260507100503 17 238 3.2 8.0 0.00 0.00 0.00 71 1013.8
20260507100026 17 326 1.6 6.4 0.00 0.00 0.00 73 1013.8
20260507095507 16 223 1.6 6.4 0.00 0.00 0.00 75 1013.8
20260507095012 16 155 1.6 3.2 0.00 0.00 0.00 73 1013.8
20260507094516 16 326 1.6 3.2 0.00 0.00 0.00 74 1013.8
20260507094007 16 158 1.6 3.2 0.00 0.00 0.00 74 1013.9
20260507093508 16 160 1.6 3.2 0.00 0.00 0.00 75 1013.9
20260507093027 15 141 1.6 3.2 0.00 0.00 0.00 74 1013.7
20260507092514 16 137 0.0 4.8 0.00 0.00 0.00 73 1013.9
20260507092008 16 167 1.6 4.8 0.00 0.00 0.00 73 1013.8
20260507091546 16 323 1.6 3.2 0.00 0.00 0.00 71 1013.8
20260507091010 16 316 0.0 3.2 0.00 0.00 0.00 73 1013.8
20260507090511 16 4 1.6 3.2 0.00 0.00 0.00 73 1013.9
20260507090026 16 316 1.6 3.2 0.00 0.00 0.00 73 1013.9
20260507085506 16 195 1.6 3.2 0.00 0.00 0.00 71 1013.8
20260507085006 16 154 0.0 6.4 0.00 0.00 0.00 72 1013.7
20260507084515 16 150 1.6 6.4 0.00 0.00 0.00 72 1013.8
20260507084012 16 326 1.6 4.8 0.00 0.00 0.00 68 1013.8
20260507083507 17 167 1.6 6.4 0.00 0.00 0.00 69 1013.7
20260507083020 17 1 3.2 6.4 0.00 0.00 0.00 69 1013.7
20260507082506 16 312 1.6 6.4 0.00 0.00 0.00 72 1013.7
20260507082009 16 258 1.6 6.4 0.00 0.00 0.00 73 1013.7
20260507081527 16 318 3.2 6.4 0.00 0.00 0.00 74 1013.7
20260507081009 15 174 1.6 6.4 0.00 0.00 0.00 74 1013.7
20260507080512 15 309 1.6 4.8 0.00 0.00 0.00 77 1013.7
20260507080025 15 188 1.6 3.2 0.00 0.00 0.00 77 1013.7
20260507075506 15 316 0.0 3.2 0.00 0.00 0.00 76 1013.8
20260507075014 15 333 1.6 3.2 0.00 0.00 0.00 76 1013.7
20260507074531 15 175 0.0 4.8 0.00 0.00 0.00 76 1013.8
20260507074006 14 175 1.6 4.8 0.00 0.00 0.00 76 1013.6
20260507073507 13 127 0.0 1.6 0.00 0.00 0.00 78 1013.6
20260507073018 13 122 0.0 1.6 0.00 0.00 0.00 82 1013.5
20260507072506 12 82 0.0 1.6 0.00 0.00 0.00 82 1013.6
20260507072010 12 82 0.0 1.6 0.00 0.00 0.00 82 1013.5
20260507071522 12 139 0.0 1.6 0.00 0.00 0.00 81 1013.5
20260507071006 12 139 0.0 1.6 0.00 0.00 0.00 80 1013.5
20260507070512 12 107 0.0 1.6 0.00 0.00 0.00 79 1013.3
20260507070023 12 120 0.0 3.2 0.00 0.00 0.00 80 1013.1
20260507065511 12 120 0.0 3.2 0.00 0.00 0.00 80 1013.3
20260507065009 12 120 0.0 1.6 0.00 0.00 0.00 81 1013.2
20260507064527 12 120 0.0 1.6 0.00 0.00 0.00 81 1013.3
20260507064008 12 120 0.0 1.6 0.00 0.00 0.00 81 1013.2
20260507063511 12 120 0.0 1.6 0.00 0.00 0.00 82 1013.3
20260507063030 12 120 0.0 1.6 0.00 0.00 0.00 82 1013.3
20260507062510 12 120 0.0 1.6 0.00 0.00 0.00 83 1013.2
20260507062006 12 120 0.0 1.6 0.00 0.00 0.00 84 1013.1
20260507061528 12 120 0.0 1.6 0.00 0.00 0.00 82 1013.1
20260507061008 12 120 0.0 1.6 0.00 0.00 0.00 84 1013.0
20260507060506 12 120 0.0 1.6 0.00 0.00 0.00 81 1013.0
20260507060029 12 120 0.0 1.6 0.00 0.00 0.00 81 1012.9
20260507055508 12 120 0.0 1.6 0.00 0.00 0.00 82 1012.9
20260507055019 12 120 0.0 1.6 0.00 0.00 0.00 82 1012.8
20260507054526 12 120 0.0 1.6 0.00 0.00 0.00 81 1012.8
20260507054007 12 120 0.0 1.6 0.00 0.00 0.00 81 1012.8
20260507053511 12 120 0.0 1.6 0.00 0.00 0.00 80 1012.7
20260507053028 12 108 0.0 1.6 0.00 0.00 0.00 82 1012.7
20260507052507 11 108 0.0 1.6 0.00 0.00 0.00 82 1012.6
20260507052011 11 108 0.0 1.6 0.00 0.00 0.00 84 1012.5
20260507051516 11 108 0.0 1.6 0.00 0.00 0.00 84 1012.5
20260507051009 11 108 0.0 1.6 0.00 0.00 0.00 84 1012.5
20260507050511 11 108 0.0 1.6 0.00 0.00 0.00 84 1012.5
20260507050030 11 108 0.0 1.6 0.00 0.00 0.00 84 1012.5
20260507045506 11 108 0.0 1.6 0.00 0.00 0.00 84 1012.4
20260507045008 11 108 0.0 1.6 0.00 0.00 0.00 85 1012.4
20260507044539 11 108 0.0 1.6 0.00 0.00 0.00 86 1012.2
20260507044014 11 108 0.0 1.6 0.00 0.00 0.00 85 1012.3
20260507043509 11 108 0.0 1.6 0.00 0.00 0.00 85 1012.2
20260507043029 11 108 0.0 1.6 0.00 0.00 0.00 84 1012.1
20260507042512 11 108 0.0 1.6 0.00 0.00 0.00 85 1012.0
20260507042010 11 107 0.0 1.6 0.00 0.00 0.00 85 1012.0
20260507041526 11 108 0.0 1.6 0.00 0.00 0.00 84 1012.0
20260507041008 11 108 0.0 1.6 0.00 0.00 0.00 83 1011.9
20260507040507 11 108 0.0 1.6 0.00 0.00 0.00 83 1012.0
20260507040019 11 107 0.0 1.6 0.00 0.00 0.00 83 1011.9
20260507035507 11 108 0.0 1.6 0.00 0.00 0.00 83 1011.9
20260507035007 11 108 0.0 1.6 0.00 0.00 0.00 84 1011.9
20260507034503 11 108 0.0 3.2 0.00 0.00 0.00 84 1011.8
20260507034004 11 108 0.0 3.2 0.00 0.00 0.00 84 1011.8
20260507033503 10 117 0.0 1.6 0.00 0.00 0.00 85 1011.8
20260507033009 10 117 0.0 1.6 0.00 0.00 0.00 84 1011.7
20260507032504 10 117 1.6 1.6 0.00 0.00 0.00 83 1011.9
20260507032006 11 90 0.0 1.6 0.00 0.00 0.00 82 1012.0
20260507031511 11 90 0.0 1.6 0.00 0.00 0.00 82 1012.0
20260507031011 11 90 0.0 1.6 0.00 0.00 0.00 82 1011.9
20260507030508 11 90 0.0 1.6 0.00 0.00 0.00 82 1011.9
20260507030018 11 90 0.0 1.6 0.00 0.00 0.00 82 1011.9
20260507025507 11 89 0.0 1.6 0.00 0.00 0.00 81 1011.7
20260507025007 11 89 0.0 1.6 0.00 0.00 0.00 81 1011.6
20260507024519 11 89 0.0 1.6 0.00 0.00 0.00 81 1011.6
20260507024008 11 89 0.0 3.2 0.00 0.00 0.00 81 1011.6
20260507023511 11 91 0.0 3.2 0.00 0.00 0.00 82 1011.6
20260507023003 10 135 0.0 1.6 0.00 0.00 0.00 83 1011.6
20260507022503 10 135 0.0 1.6 0.00 0.00 0.00 83 1011.7
20260507022006 10 135 0.0 1.6 0.00 0.00 0.00 81 1011.8
20260507021508 11 135 0.0 1.6 0.00 0.00 0.00 81 1011.9
20260507021010 11 135 0.0 1.6 0.00 0.00 0.00 80 1011.7
20260507020506 11 60 0.0 1.6 0.00 0.00 0.00 80 1011.7
20260507020011 11 60 0.0 1.6 0.00 0.00 0.00 80 1011.8
20260507015506 11 60 0.0 3.2 0.00 0.00 0.00 80 1011.7
20260507015010 11 60 0.0 3.2 0.00 0.00 0.00 79 1011.7
20260507014515 11 60 0.0 3.2 0.00 0.00 0.00 79 1011.7
20260507014009 11 80 0.0 3.2 0.00 0.00 0.00 79 1011.7
20260507013507 11 39 0.0 3.2 0.00 0.00 0.00 80 1011.7
20260507013022 11 65 0.0 1.6 0.00 0.00 0.00 80 1011.7
20260507012514 11 65 0.0 1.6 0.00 0.00 0.00 80 1011.7
20260507012010 11 65 0.0 1.6 0.00 0.00 0.00 79 1011.8
20260507011506 11 37 0.0 1.6 0.00 0.00 0.00 78 1011.8
20260507011004 11 37 0.0 4.8 0.00 0.00 0.00 78 1011.8
20260507010503 11 37 1.6 4.8 0.00 0.00 0.00 78 1011.9
20260507010008 11 19 0.0 4.8 0.00 0.00 0.00 77 1011.7
20260507005508 11 71 1.6 6.4 0.00 0.00 0.00 77 1011.8
20260507005009 11 20 1.6 6.4 0.00 0.00 0.00 77 1011.8
20260507004515 11 37 0.0 8.0 0.00 0.00 0.00 78 1011.7
20260507004007 11 207 1.6 8.0 0.00 0.00 0.00 77 1011.8
20260507003508 11 49 1.6 4.8 0.00 0.00 0.00 78 1011.8
20260507003019 11 18 1.6 4.8 0.00 0.00 0.00 78 1011.8
20260507002510 11 353 1.6 6.4 0.00 0.00 0.00 78 1011.8
20260507002009 11 22 1.6 6.4 0.00 0.00 0.00 78 1011.9
20260507001525 11 21 3.2 6.4 0.00 0.00 0.00 78 1012.0
20260507001012 11 31 1.6 6.4 0.00 0.00 0.00 80 1012.1
20260507000510 11 63 0.0 3.2 0.00 0.00 0.00 81 1012.2
20260507000006 11 63 0.0 3.2 0.00 0.00 0.00 81 1012.1
20260506235507 11 72 0.0 1.6 0.00 0.00 0.00 81 1012.0
20260506235008 11 48 0.0 1.6 0.00 0.00 0.00 81 1012.1
20260506234514 11 48 0.0 4.8 0.00 0.00 0.00 81 1012.1
20260506234006 11 48 0.0 4.8 0.00 0.00 0.00 81 1012.1
20260506233507 11 31 1.6 1.6 0.00 0.00 0.00 81 1012.3
20260506233016 11 30 1.6 1.6 0.00 0.00 0.00 82 1012.2
20260506232509 11 13 0.0 3.2 0.00 0.00 0.00 82 1012.2
20260506232007 11 12 1.6 4.8 0.00 0.00 0.00 82 1012.3
20260506231519 11 30 1.6 8.0 0.00 0.00 0.00 81 1012.3
20260506231008 11 22 1.6 9.7 0.00 0.00 0.00 81 1012.5
20260506230510 11 344 3.2 11.3 0.00 0.00 0.00 80 1012.6
20260506230024 12 349 3.2 14.5 0.00 0.00 0.00 80 1012.5
20260506225508 12 4 4.8 16.1 0.00 0.00 0.00 79 1012.7
20260506225011 12 310 6.4 16.1 0.00 0.00 0.00 78 1012.5
20260506224507 12 6 3.2 12.9 0.00 0.00 0.00 78 1012.6
20260506224006 12 336 3.2 6.4 0.00 0.00 0.00 78 1012.5
20260506223505 12 320 1.6 6.4 0.00 0.00 0.00 77 1012.5
20260506223014 12 316 1.6 6.4 0.00 0.00 0.00 76 1012.4
20260506222507 12 26 1.6 6.4 0.00 0.00 0.00 76 1012.3
20260506222012 12 12 1.6 6.4 0.00 0.00 0.00 75 1012.2
20260506221520 12 345 1.6 4.8 0.00 0.00 0.00 75 1012.3
20260506221011 12 8 1.6 4.8 0.00 0.00 0.00 75 1012.1
20260506220508 12 29 1.6 6.4 0.00 0.00 0.00 75 1011.9
20260506220030 12 49 1.6 6.4 0.00 0.00 0.00 76 1011.9
20260506215509 12 25 1.6 8.0 0.00 0.00 0.00 77 1011.8
20260506215009 12 40 1.6 8.0 0.00 0.00 0.00 78 1011.8
20260506214527 12 23 1.6 3.2 0.00 0.00 0.00 79 1011.8
20260506214009 12 103 0.0 1.6 0.00 0.00 0.00 80 1011.6
20260506213506 12 48 0.0 1.6 0.00 0.00 0.00 80 1011.7
20260506213015 12 48 0.0 1.6 0.00 0.00 0.00 80 1011.8
20260506212506 12 48 0.0 1.6 0.00 0.00 0.00 80 1011.7
20260506212006 12 48 0.0 1.6 0.00 0.00 0.00 80 1011.7
20260506211514 12 48 0.0 3.2 0.00 0.00 0.00 80 1011.7
20260506211007 12 48 0.0 4.8 0.00 0.00 0.00 79 1011.8
20260506210511 13 15 0.0 6.4 0.00 0.00 0.00 79 1011.7
20260506210020 13 12 1.6 16.1 0.00 0.00 0.00 78 1011.7
20260506205510 13 5 1.6 16.1 0.00 0.00 0.00 80 1011.9
20260506205008 13 276 4.8 16.1 0.00 0.00 0.00 80 1011.9
20260506204525 13 319 1.6 8.0 0.00 0.00 0.00 80 1011.8
20260506204010 13 22 3.2 8.0 0.00 0.00 0.00 80 1011.7
20260506203514 13 124 0.0 1.6 0.00 0.00 0.00 80 1011.7
20260506203026 13 15 0.0 4.8 0.00 0.00 0.00 80 1011.7
20260506202514 13 17 1.6 4.8 0.00 0.00 0.00 80 1011.5
20260506202006 13 30 0.0 1.6 0.00 0.00 0.00 80 1011.4
20260506201514 12 30 0.0 1.6 0.00 0.00 0.00 81 1011.4
20260506201008 12 30 0.0 1.6 0.00 0.00 0.00 81 1011.4
20260506200506 12 29 0.0 3.2 0.00 0.00 0.00 80 1011.4
20260506200024 13 316 0.0 3.2 0.00 0.00 0.00 80 1011.3
20260506195507 12 11 0.0 1.6 0.00 0.00 0.00 80 1011.2
20260506195013 13 352 0.0 3.2 0.00 0.00 0.00 80 1011.2
20260506194520 13 43 0.0 3.2 0.00 0.00 0.00 80 1011.2
20260506194012 13 27 1.6 4.8 0.00 0.00 0.00 80 1011.2
20260506193511 13 30 0.0 4.8 0.00 0.00 0.00 80 1011.1
20260506193026 13 4 0.0 4.8 0.00 0.00 0.00 79 1011.1
20260506192510 13 197 0.0 4.8 0.00 0.00 0.00 79 1011.1
20260506192009 13 174 1.6 4.8 0.00 0.00 0.00 79 1011.1
20260506191524 13 254 1.6 4.8 0.00 0.00 0.00 79 1011.0
20260506191010 13 251 1.6 4.8 0.00 0.00 0.00 79 1011.1
20260506190507 13 309 1.6 3.2 0.00 0.00 0.00 79 1011.0
20260506190014 13 11 1.6 6.4 0.00 0.00 0.00 78 1011.0
20260506185504 13 20 0.0 6.4 0.00 0.00 0.00 78 1011.0
20260506185007 13 176 0.0 6.4 0.00 0.00 0.00 78 1010.9
20260506184518 13 260 0.0 6.4 0.00 0.00 0.00 77 1010.9
20260506184006 13 20 1.6 8.0 0.00 0.00 0.00 77 1010.8
20260506183507 13 302 3.2 8.0 0.00 0.00 0.00 76 1010.8
20260506183024 13 309 1.6 6.4 0.00 0.00 0.00 76 1010.7
20260506182508 14 313 3.2 8.0 0.00 0.00 0.00 76 1010.8
20260506182006 14 318 3.2 8.0 0.00 0.00 0.00 75 1010.8
20260506181507 14 59 3.2 8.0 0.00 0.00 0.00 75 1010.6
20260506181005 14 327 4.8 8.0 0.00 0.00 0.00 74 1010.6
20260506180504 15 326 3.2 8.0 0.00 0.00 0.00 73 1010.6
20260506180010 15 168 1.6 6.4 0.00 0.00 0.00 73 1010.5
20260506175505 15 323 3.2 6.4 0.00 0.00 0.00 72 1010.4
20260506175006 15 309 1.6 6.4 0.00 0.00 0.00 72 1010.5